Change the Weather History Date:

Thursday, April 17, 2014

  Actual Average Record
Temperature  
Mean Temperature 49 °F 59 °F  
Max Temperature 55 °F 70 °F 92 °F (1976)
Min Temperature 42 °F 48 °F 32 °F (1962)
Degree Days  
Heating Degree Days 16 7  
Month to date heating degree days 94 150  
Since 1 July heating degree days 3215 3087  
Cooling Degree Days 0 1  
Month to date cooling degree days 22 17  
Year to date cooling degree days 22 24  
Moisture  
Dew Point 38 °F    
Average Humidity 68    
Maximum Humidity 76    
Minimum Humidity 59    
Precipitation  
Precipitation 0.00 in 0.09 in 0.63 in (1946)
Month to date precipitation 2.24 1.86  
Year to date precipitation 8.79 12.28  
Snow  
Snow 0.00 in - 0.00 in (2002)
Month to date snowfall 0.0  
Since 1 July snowfall 10.2  
Snow Depth 0.00 in    
Sea Level Pressure  
Sea Level Pressure 30.51 in    
Wind  
Wind Speed 17 mph (NNE)    
Max Wind Speed 24 mph    
Max Gust Speed 30 mph    
Visibility 10 miles    
Events      
T = Trace of Precipitation, MM = Missing Value Source: NWS Daily Summary

Daily Weather History Graph

Daily Weather History Graph

Search for Another Location

Airport or City:

Trip Planner

Search our weather history database for the weather conditions in past years. The results will help you decide how hot, cold, wet, or windy it might be!

Date:

Astronomy

Apr. 17, 2014 Rise Set
Actual Time 6:28 AM EDT 7:40 PM EDT
Civil Twilight 6:02 AM EDT 8:07 PM EDT
Nautical Twilight 5:30 AM EDT 8:38 PM EDT
Astronomical Twilight 4:57 AM EDT 9:11 PM EDT
Moon 10:20 PM EDT (4/17) 8:01 AM EDT (4/17)
Length of Visible Light 14h 04m
Length of Day
13h 11m
Waning Gibbous, 94% of the Moon is Illuminated
Apr 17
Waning Gibbous
Apr 22
Last Quarter
Apr 29
New
May 6
First Quarter
May 14
Full

Hourly Weather History & Observations

Time (EDT) Temp. Windchill Dew Point Humidity Pressure Visibility Wind Dir Wind Speed Gust Speed Precip Events Conditions
12:54 AM 42.1 °F 35.2 °F 32.0 °F 67% 30.49 in 10.0 mi NE 12.7 mph - N/A   Clear
1:54 AM 43.0 °F 36.4 °F 33.1 °F 68% 30.48 in 10.0 mi NE 12.7 mph - N/A   Clear
2:54 AM 43.0 °F 36.4 °F 32.0 °F 65% 30.46 in 10.0 mi NNE 12.7 mph - N/A   Clear
3:54 AM 43.0 °F 36.8 °F 33.1 °F 68% 30.47 in 10.0 mi NNE 11.5 mph - N/A   Clear
4:54 AM 43.0 °F 36.4 °F 34.0 °F 71% 30.47 in 10.0 mi NNE 12.7 mph - N/A   Clear
5:54 AM 43.0 °F 36.4 °F 35.1 °F 74% 30.49 in 10.0 mi NNE 12.7 mph - N/A   Clear
6:54 AM 44.1 °F 37.7 °F 36.0 °F 73% 30.51 in 10.0 mi NNE 12.7 mph - N/A   Clear
7:54 AM 46.9 °F - 37.0 °F 68% 30.53 in 10.0 mi NNE 18.4 mph 25.3 mph N/A   Clear
8:54 AM 48.9 °F - 37.9 °F 66% 30.53 in 10.0 mi NNE 21.9 mph 28.8 mph N/A   Clear
9:54 AM 51.1 °F - 39.0 °F 63% 30.55 in 10.0 mi NNE 20.7 mph - N/A   Clear
10:54 AM 53.1 °F - 39.9 °F 61% 30.56 in 10.0 mi NNE 20.7 mph 26.5 mph N/A   Partly Cloudy
12:54 PM 55.0 °F - 41.0 °F 59% 30.56 in 10.0 mi NNE 17.3 mph - N/A   Clear
1:54 PM 55.0 °F - 41.0 °F 59% 30.54 in 10.0 mi NE 19.6 mph 26.5 mph N/A   Scattered Clouds
2:54 PM 55.0 °F - 42.1 °F 62% 30.53 in 10.0 mi NNE 16.1 mph 24.2 mph N/A   Clear
3:54 PM 54.0 °F - 41.0 °F 62% 30.52 in 10.0 mi NNE 21.9 mph 26.5 mph N/A   Clear
4:54 PM 53.1 °F - 41.0 °F 64% 30.52 in 10.0 mi NNE 20.7 mph - N/A   Scattered Clouds
5:54 PM 51.1 °F - 41.0 °F 68% 30.52 in 10.0 mi NE 19.6 mph 24.2 mph N/A   Scattered Clouds
6:54 PM 48.0 °F - 39.0 °F 71% 30.51 in 10.0 mi NNE 24.2 mph 28.8 mph N/A   Scattered Clouds
7:29 PM 46.4 °F 38.7 °F 39.2 °F 76% 30.50 in 10.0 mi NNE 20.7 mph 25.3 mph N/A   Mostly Cloudy
7:54 PM 46.9 °F - 39.9 °F 77% 30.50 in 10.0 mi NNE 16.1 mph 25.3 mph N/A   Overcast
8:54 PM 46.0 °F 38.3 °F 39.9 °F 79% 30.50 in 10.0 mi NNE 20.7 mph 26.5 mph N/A   Overcast
9:54 PM 46.0 °F 39.9 °F 39.9 °F 79% 30.51 in 10.0 mi NNE 13.8 mph 26.5 mph N/A   Overcast
10:40 PM 46.4 °F 40.1 °F 39.2 °F 76% 30.51 in 10.0 mi NNE 15.0 mph 21.9 mph N/A   Overcast
10:54 PM 46.0 °F 39.6 °F 39.9 °F 79% 30.52 in 10.0 mi NNE 15.0 mph - N/A   Overcast
11:54 PM 46.0 °F 39.3 °F 39.9 °F 79% 30.51 in 10.0 mi NE 16.1 mph - N/A   Overcast